Regional Weather Roundup
Issued by NWS Cleveland, OH

Home | Current Version | Previous Version | Text Only | Print | Product List | Glossary Off
Versions: 1 2 3 4 5 6 7 8 9 10 11 12 13 14 15 16 17 18 19 20 21 22 23 24 25 26 27 28 29 30 31 32 33 34 35 36 37 38 39 40 41 42 43 44 45 46 47 48 49 50

000
ASUS41 KCLE 091902
RWRCLE
OHIO REGIONAL WEATHER ROUNDUP
NATIONAL WEATHER SERVICE CLEVELAND, OH
200 PM EST TUE FEB 09 2016

NOTE: "FAIR" INDICATES FEW OR NO CLOUDS BELOW 12,000 FEET WITH NO
SIGNIFICANT WEATHER AND/OR OBSTRUCTIONS TO VISIBILITY.

OHZ001>008-015>018-024>027-034-035-043-044-092000-
   NORTHWEST OHIO

CITY           SKY/WX    TMP DP  RH WIND       PRES   REMARKS
DEFIANCE       CLOUDY    30  21  69 NW14      29.66S WCI  19
FINDLAY        CLOUDY    31  24  75 W16       29.62F WCI  20
TOLEDO EXPRESS CLOUDY    29  23  78 W12       29.62S WCI  19
TOLEDO EXEC    CLOUDY    31  24  75 W18       29.62S HAZE    WCI  19
LIMA           CLOUDY    26  22  84 W17       29.65S WCI  13
$$

OHZ009>014-019>023-028>033-038-089-092000-
   NORTHEAST OHIO

CITY           SKY/WX    TMP DP  RH WIND       PRES   REMARKS
CLE-HOPKINS    FLURRIES  30  25  81 SW14G22   29.59F WCI  19
CLE-LAKEFRONT  LGT SNOW  32  27  81 SW15      29.57F WCI  22
CUY CO. ARPT   CLOUDY    32  27  80 W12       29.56F WCI  23
LORAIN-ELYRIA  LGT SNOW  29  25  85 W12       29.58F FOG     WCI  19
ASHTABULA      CLOUDY    31  26  82 W13       29.55S WCI  21
AKRON-CANTON   CLOUDY    29  23  78 W13       29.57F HAZE    WCI  19
WOOSTER        CLOUDY    28  23  81 W16       29.59S WCI  16
MANSFIELD      CLOUDY    26  22  84 SW14      29.59S WCI  14
YOUNGSTOWN     CLOUDY    31  24  75 W10       29.54F WCI  22
$$

OHZ042-051>053-060>062-070>072-077>081-092000-
  SOUTHWEST OHIO

CITY           SKY/WX    TMP DP  RH WIND       PRES   REMARKS
CINC-COVINGTON LGT SNOW  23  17  78 W16       29.76S WCI  10
CINC-LUNKEN    LGT SNOW  24  19  81 W13       29.79F WCI  12
HAMILTON       LGT SNOW  25  17  72 W16       29.78S WCI  12
DAYTON         LGT SNOW  24  20  84 W21       29.71S VSB 1   WCI   9
WRIGHT-PAT AFB NOT AVBL
DAYTON GENERAL LGT SNOW  24  16  71 W13G20    29.72S WCI  12
WILMINGTON     MIX PCPN  22  17  81 W17       29.71S WCI   8
$$

OHZ036-037-039>041-045>050-054>059-063>069-073>076-082>088-092000-
  CENTRAL AND SOUTHEAST OHIO

CITY           SKY/WX    TMP DP  RH WIND       PRES   REMARKS
COLUMBUS       CLOUDY    26  18  71 W12       29.67S WCI  16
OSU AIRPORT    CLOUDY    26  20  77 W14       29.66S WCI  14
BOLTON FIELD   CLOUDY    25  19  80 W15       29.68F WCI  12
RICKENBACK AFB NOT AVBL
NEWARK         CLOUDY    26  22  84 MISG      29.65F
MARION         CLOUDY    26  19  74 W15       29.64S WCI  14
LANCASTER      CLOUDY    24  19  81 W15       29.69S WCI  11
ZANESVILLE     LGT SNOW  26  20  77 W13       29.65F WCI  15
NEW PHILLY     CLOUDY    26  21  81 SW10      29.62F WCI  16
$$



USA.gov is the U.S. government's official web portal to all federal, state and local government web resources and services.